TimeEDT,TemperatureF,Dew PointF,Humidity,Sea Level PressureIn,VisibilityMPH,Wind Direction,Wind SpeedMPH,Gust SpeedMPH,PrecipitationIn,Events,Conditions,WindDirDegrees,DateUTC
12:53 AM,78.1,64.9,64,30.07,10.0,East,13.8,19.6,N/A,,Mostly Cloudy,90,2013-05-16 04:53:00
1:53 AM,77.0,64.9,66,30.06,10.0,East,13.8,19.6,N/A,,Mostly Cloudy,90,2013-05-16 05:53:00
2:53 AM,77.0,66.0,69,30.02,10.0,East,19.6,-,N/A,,Mostly Cloudy,100,2013-05-16 06:53:00
3:53 AM,77.0,66.0,69,30.03,10.0,ESE,15.0,-,N/A,,Mostly Cloudy,110,2013-05-16 07:53:00
4:53 AM,77.0,66.0,69,30.02,10.0,East,15.0,-,N/A,,Mostly Cloudy,100,2013-05-16 08:53:00
5:53 AM,77.0,66.0,69,30.02,10.0,ESE,15.0,-,N/A,,Scattered Clouds,110,2013-05-16 09:53:00
6:53 AM,77.0,66.0,69,30.04,10.0,East,13.8,-,N/A,,Clear,100,2013-05-16 10:53:00
7:53 AM,78.1,66.0,66,30.06,10.0,ESE,12.7,-,N/A,,Partly Cloudy,110,2013-05-16 11:53:00
8:53 AM,79.0,66.9,66,30.08,10.0,East,12.7,-,N/A,,Scattered Clouds,100,2013-05-16 12:53:00
9:53 AM,79.0,66.9,66,30.08,10.0,ESE,10.4,-,N/A,,Mostly Cloudy,110,2013-05-16 13:53:00
10:53 AM,82.0,68.0,62,30.09,10.0,ESE,12.7,-,N/A,,Partly Cloudy,110,2013-05-16 14:53:00
11:53 AM,82.9,68.0,60,30.10,10.0,East,13.8,-,N/A,,Partly Cloudy,100,2013-05-16 15:53:00
12:53 PM,82.9,68.0,60,30.08,10.0,East,13.8,-,N/A,,Clear,100,2013-05-16 16:53:00
1:53 PM,82.9,68.0,60,30.08,10.0,East,15.0,-,N/A,,Clear,100,2013-05-16 17:53:00
2:53 PM,82.9,66.9,58,30.07,10.0,East,15.0,-,N/A,,Mostly Cloudy,100,2013-05-16 18:53:00
3:53 PM,82.0,66.9,60,30.06,10.0,ESE,11.5,-,N/A,,Overcast,110,2013-05-16 19:53:00
4:53 PM,82.0,66.9,60,30.04,10.0,East,15.0,-,N/A,,Mostly Cloudy,100,2013-05-16 20:53:00
5:53 PM,80.6,66.2,61,30.03,10.0,East,12.7,-,N/A,,Clear,100,2013-05-16 21:53:00
6:53 PM,81.0,66.9,62,30.01,10.0,East,10.4,-,N/A,,Clear,90,2013-05-16 22:53:00
7:53 PM,79.0,66.0,64,30.01,10.0,East,9.2,-,N/A,,Clear,80,2013-05-16 23:53:00
8:53 PM,78.1,66.9,68,30.02,10.0,East,12.7,-,N/A,,Clear,100,2013-05-17 00:53:00
9:53 PM,78.1,66.0,66,30.05,10.0,East,13.8,-,N/A,,Clear,100,2013-05-17 01:53:00
10:53 PM,78.1,66.9,68,30.06,10.0,ESE,13.8,-,N/A,,Scattered Clouds,110,2013-05-17 02:53:00
11:01 PM,78.8,66.2,65,30.06,10.0,ESE,12.7,-,N/A,,Mostly Cloudy,110,2013-05-17 03:01:00
11:12 PM,78.8,66.2,65,30.06,10.0,ESE,15.0,-,N/A,,Mostly Cloudy,120,2013-05-17 03:12:00
11:53 PM,78.1,66.9,68,30.06,10.0,ESE,11.5,-,N/A,,Partly Cloudy,120,2013-05-17 03:53:00